STARLINK-34057, 63814

Orbit data source: Space-Track

STARLINK-34057, 63814 is a payload satellite owned by SpaceX/Seattle (US) in LEO that was launched on Sun, 04 May 2025 UTC via an FALCON 9 launch vehicle from the Air Force Eastern Test Range (AFETR). Payload-class satellites include a variety of spacecraft equipped with specific instruments for various scientific and technological missions. These include communications satellites like Starlink; space stations such as the ISS; scientific satellites like the Hubble; Earth observation satellites from companies like Planet Labs, Umbra, and HawkEye 360; GPS; miniature CubeSats for education and research; and military/defense satellites.

Loading next visibility...
Identifier
63814, 2025-092L
Orbit
LEO
Last TLE update
19 hours ago
Origin
Manufacturer
SpaceX/Seattle
Mission
Operational Commercial Communications
Bus & Motor
STARLINK V2MO, Unknown motor
Mass
575 kg wet, ~530 kg dry
Launch date (UTC)
2025-05-04 (2 months ago)
Launch vehicle
FALCON 9
Launch site
Air Force Eastern Test Range (AFETR)
Object type
Payload
Rocket body
Debris
Shape & HBR
Box + 1 Pan, 29 m
Radar Cross Section
41.120 m², Large (>1 m²)

Expand to show TLE details & history

TLE from 19 hours ago
0 STARLINK-34057
1 63814U 25092L   25189.50814113  .00014285  00000-0  52757-3 0  9997
2 63814  43.0093 111.2460 0002451 248.9573 111.1016 15.27582425 11271
Epoch: 2025-07-08T12:11Z
TLE epoch observation values (Epoch: 2025-07-08T12:11:43.393Z)
Latitude
-0.00008°
Longitude
1.61299°
Altitude
483.424 km
Speed
7.625 km/s
True Right ascension
07h 24m 59s
True Declination
0° 00' 00"
Sunlit
Object was in daylight at epoch
Visualization orbit readout
Latitude
31.1666°
Longitude
136.8954°
Altitude
484.663 km
Speed
7.627 km/s
Apparent Right ascension
12h 49m 59s
Apparent Declination
-6° 38' 28"
Sunlit
Object is in full shadow
Visualization observer readout
Local Sidereal Time
19:45:19
Azimuth
273.779° WNW
Elevation
-14.856°
Doppler factor
1
Orbital elements
Apogee altitude
486.668 km
Perigee altitude
483.303 km
Semi-major axis
6,863.122 km
Eccentricity
0.00025
Inclination
43.0093°
RAAN
111.246°
Arg. of periapsis
248.9573°
True anomaly
Unknown
Mean anomaly
111.1016°
Eccentric anomaly
Unknown
Mean motion
3.81734 °/min
Orbital period
94.31 mins
BSTAR
0.00052757
Loading maneuver chart data...
Loading SW <> Apogee altitude chart data...
Loading historical data...
Loading historical data...
Loading historical data...
Loading historical data...
Loading historical data...
Loading historical data...
Loading historical data...

STARLINK-34057 Visibility forecast

Observer location: undefined°, undefined°

Span
Click to sort rows by Start time (UTC) header in descending order
Start Az.
Max El. time (UTC)
Max El. Az.
Max El.
End time (UTC)
End Az.
5 mins2025-07-09 21:20:48.434Z194.909° SSW2025-07-09 21:22:48.434Z154.596° SSE23.056°2025-07-09 21:25:48.434Z93.675° ESE
5 mins2025-07-09 22:59:48.434Z255.804° W2025-07-09 23:01:48.434Z355.025° N44.823°2025-07-09 23:04:48.434Z70.903° E
5 mins2025-07-10 00:38:48.434Z292.178° WNW2025-07-10 00:40:48.434Z351.887° N37.858°2025-07-10 00:43:48.434Z74.292° E
6 mins2025-07-10 02:17:48.434Z288.864° WNW2025-07-10 02:19:48.434Z296.507° NW44.129°2025-07-10 02:23:48.434Z108.239° ESE
4 mins2025-07-10 03:56:48.434Z255.471° W2025-07-10 03:58:48.434Z212.246° SW21.742°2025-07-10 04:00:48.434Z170.618° S
|